千帆星座-121(QIANFAN-121)

导读 | 豆包AI

QIANFAN-121(NORAD编号68648)是中国千帆巨型星座(G60星链)中的一颗低轨通信卫星,由上海航天通信卫星技术有限公司主导项目,上海微小卫星工程中心参与研制。该星座计划构建由14000颗卫星组成的低轨互联网星座,旨在提供全球低地球轨道互联网接入服务。QIANFAN-121运行在轨道倾角约89度的近地轨道,属于千帆星座第四批发射的18颗卫星之一,该批卫星于2025年2月完成发射,入轨后逐步参与星座组网测试,推动低轨宽带通信服务的部署进程。

Basic Information
目录编号:
68648
目录名称:
QIANFAN-121
国际标识:
2026-075N
轨道中心:
EARTH
卫星名称:
千帆星座-121
卫星全名:
千帆星座-121(QIANFAN-121)
卫星状态:
在轨 (已飞行21 天)
发射日期:
2026-04-07 UTC
国别 :
中国 (CN)
星等 :
--
Orbit Information
数据来源 国际轨道数据 AOE轨道数据
星历时间 2026-04-28T14:11:04+0800
16小时前
查看轨道信息
2026-04-29T03:00:00+0800
3小时前
查看轨道信息
半长轴 7195.545km 7195.544km
偏心率 0.0015252 0.0015458
轨道倾角 88.990° 88.988°
近地点辐角 149.209° 147.598°
升交点赤经 326.327° 326.265°
平近点角 210.999° 65.139°
近地点 806.433km 806.284km
远地点 828.383km 828.53km
周期 101.241分钟 101.241分钟
每日圈数 14.223527 14.223528
Detailed Information
卫星平台:
121
覆盖范围:
全球
运营商:
上海垣信卫星科技有限公司
运营商所在国:
中国
使用方式:
暂无
Satellite Introduction
千帆星座,也被称为“G60星链”计划,是中国版“星链”的重要组成部分,旨在打造一个由1.4万多颗低轨宽频多媒体卫星构成的庞大星座。千帆星座计划由上海垣信卫星科技有限公司负责实施,于2023年启动建设。该项目是我国第二个低轨卫星大星座,旨在通过构建庞大的卫星网络,为全球用户提供高质量的通信和宽带互联网服务。
2D Orbit Map
3D Orbit Map
Orbit Altitude Analysis Chart
Orbit Inclination Analysis Chart
Orbit Comprehensive Analysis Chart
View Comprehensive Chart